This is the latest recevied weather packets stored in our database for station/object KC1OEK-13. If no packets are shown the sender has not sent any weather packets the latest 10 day(s).
| Time | Temp. | Humidity | Pressure | Rain* | Wind** | Luminosity | Snow |
|---|---|---|---|---|---|---|---|
| 1787427077 | 20.56° C | 91% | 1019.1 hPa | 0 mm | - | 145 W/m² | - |
| 1787426773 | 20° C | 91% | 1019 hPa | 0 mm | - | 151 W/m² | - |
| 1787426468 | 20° C | 92% | 1018.9 hPa | 0 mm | - | 158 W/m² | - |
| 1787426165 | 20° C | 93% | 1019.1 hPa | 0 mm | - | 188 W/m² | - |
| 1787425861 | 20° C | 92% | 1019.1 hPa | 0 mm | - | 187 W/m² | - |
| 1787425557 | 20° C | 92% | 1019.2 hPa | 0 mm | - | 154 W/m² | - |
| 1787425252 | 20.56° C | 92% | 1019.2 hPa | 0 mm | - | 145 W/m² | - |
| 1787424951 | 20.56° C | 90% | 1019.4 hPa | 0 mm | - | 153 W/m² | - |
| 1787424651 | 20.56° C | 89% | 1019.2 hPa | 0 mm | - | 133 W/m² | - |
| 1787424347 | 20.56° C | 89% | 1019.5 hPa | 0 mm | - | 181 W/m² | - |
| 1787424047 | 20.56° C | 90% | 1019.3 hPa | 0 mm | - | 159 W/m² | - |
| 1787423743 | 20.56° C | 88% | 1019.4 hPa | 0 mm | - | 171 W/m² | - |
| 1787423439 | 20.56° C | 87% | 1019.6 hPa | 0 mm | - | 162 W/m² | - |
| 1787423135 | 21.11° C | 86% | 1019.6 hPa | 0 mm | - | 142 W/m² | - |
| 1787422830 | 21.11° C | 86% | 1019.5 hPa | 0 mm | - | 155 W/m² | - |
| 1787422527 | 21.11° C | 85% | 1019.9 hPa | 0 mm | - | 160 W/m² | - |
| 1787422227 | 21.67° C | 82% | 1019.7 hPa | 0 mm | - | 192 W/m² | - |
| 1787421924 | 21.67° C | 82% | 1019.6 hPa | 0 mm | - | 218 W/m² | - |
| 1787421619 | 21.11° C | 82% | 1019.8 hPa | 0 mm | - | 232 W/m² | - |
| 1787421314 | 21.11° C | 83% | 1019.9 hPa | 0 mm | - | 175 W/m² | - |
| 1787421009 | 21.11° C | 84% | 1019.7 hPa | 0 mm | - | 190 W/m² | - |
| 1787420704 | 21.11° C | 84% | 1019.8 hPa | 0 mm | - | 175 W/m² | - |
| 1787420401 | 20.56° C | 84% | 1019.6 hPa | 0 mm | - | 218 W/m² | - |
| 1787420098 | 20.56° C | 84% | 1019.9 hPa | 0 mm | - | 150 W/m² | - |
| 1787419793 | 21.11° C | 84% | 1019.9 hPa | 0 mm | - | 127 W/m² | - |
* Rain latest hour (hover to see other rain measurements)
** Current wind speed in m/s (hover to see current wind gust speed)